Weather History for Crestview, FL

Change the Weather History Date:

Tuesday, October 9, 2012

  Actual Average Record
Temperature  
Mean Temperature 66 °F -  
Max Temperature 80 °F 82 °F 91 °F (1982)
Min Temperature 53 °F 55 °F 42 °F (1951)
Cooling Degree Days 1    
Growing Degree Days 16 (Base 50)    
Moisture  
Dew Point 55 °F    
Average Humidity 81    
Maximum Humidity 97    
Minimum Humidity 47    
Precipitation  
Precipitation 0.00 in - - ()
Sea Level Pressure  
Sea Level Pressure 30.10 in    
Wind  
Wind Speed 2 mph (NNE)    
Max Wind Speed 8 mph    
Max Gust Speed -    
Visibility 7 miles    
Events Fog    
Averages and records for this station are not official NWS values.
T = Trace of Precipitation, MM = Missing Value Source: NWS Daily Summary

Daily Weather History Graph

Daily Weather History Graph

Search for Another Location

Airport:

Trip Planner

Search our weather history database for the weather conditions in past years. The results will help you decide how hot, cold, wet, or windy it might be!

Date:

Astronomy

Oct. 09, 2012 Rise Set
Actual Time 6:44 AM CDT 6:20 PM CDT
Civil Twilight 6:20 AM CDT 6:45 PM CDT
Nautical Twilight 5:52 AM CDT 7:13 PM CDT
Astronomical Twilight 5:24 AM CDT 7:40 PM CDT
Moon 12:44 AM CDT (10/9) 2:26 PM CDT (10/9)
Length of Visible Light 12h 24m
Length of Day
11h 36m
Last Quarter, 36% of the Moon is Illuminated
Oct 9
Last Quarter
Oct 15
New
Oct 21
First Quarter
Oct 29
Full
Nov 6
Last Quarter

Hourly Weather History & Observations

Time (CDT) Temp. Dew Point Humidity Pressure Visibility Wind Dir Wind Speed Gust Speed Precip Events Conditions
12:53 AM 57.9 °F 52.0 °F 81% 30.09 in 10.0 mi North 4.6 mph - N/A   Clear
1:53 AM 57.0 °F 51.1 °F 81% 30.09 in 10.0 mi North 3.5 mph - N/A   Clear
3:53 AM 55.0 °F 51.1 °F 86% 30.08 in 10.0 mi Calm Calm - N/A   Clear
4:53 AM 54.0 °F 50.0 °F 86% 30.08 in 10.0 mi Calm Calm - N/A   Clear
5:20 AM 53.6 °F 51.8 °F 94% 30.09 in 10.0 mi Calm Calm - N/A   Scattered Clouds
5:28 AM 53.6 °F 51.8 °F 94% 30.09 in 9.0 mi Calm Calm - N/A   Mostly Cloudy
5:53 AM 54.0 °F 52.0 °F 93% 30.09 in 7.0 mi Calm Calm - N/A   Overcast
6:15 AM 53.6 °F 51.8 °F 94% 30.10 in 2.0 mi NNE 3.5 mph - N/A   Overcast
6:18 AM 53.6 °F 51.8 °F 94% 30.10 in 1.8 mi NNE 3.5 mph - N/A   Overcast
6:53 AM 54.0 °F 53.1 °F 97% 30.11 in 0.5 mi Calm Calm - N/A Fog Fog
7:53 AM 55.0 °F 54.0 °F 96% 30.12 in 0.2 mi NE 3.5 mph - N/A Fog Fog
8:22 AM 57.2 °F 55.4 °F 94% 30.12 in 0.5 mi ENE 3.5 mph - N/A Fog Fog
8:35 AM 57.2 °F 55.4 °F 94% 30.13 in 1.0 mi NNE 3.5 mph - N/A   Overcast
8:48 AM 57.2 °F 55.4 °F 94% 30.13 in 2.5 mi Calm Calm - N/A   Overcast
8:53 AM 59.0 °F 55.9 °F 90% 30.13 in 2.5 mi East 3.5 mph - N/A   Overcast
9:00 AM 60.8 °F 57.2 °F 88% 30.13 in 3.0 mi Calm Calm - N/A   Overcast
9:11 AM 60.8 °F 57.2 °F 88% 30.13 in 5.0 mi Calm Calm - N/A   Overcast
9:53 AM 63.0 °F 57.9 °F 84% 30.14 in 8.0 mi ENE 4.6 mph - N/A   Overcast
10:03 AM 62.6 °F 57.2 °F 82% 30.14 in 9.0 mi Calm Calm - N/A   Mostly Cloudy
10:21 AM 64.4 °F 57.2 °F 77% 30.14 in 10.0 mi Calm Calm - N/A   Scattered Clouds
10:53 AM 69.1 °F 59.0 °F 70% 30.13 in 10.0 mi Variable 3.5 mph - N/A   Clear
11:53 AM 73.9 °F 55.9 °F 53% 30.11 in 10.0 mi NW 8.1 mph - N/A   Clear
12:53 PM 75.9 °F 57.9 °F 54% 30.09 in 10.0 mi NNW 8.1 mph - N/A   Clear
1:53 PM 77.0 °F 57.9 °F 52% 30.06 in 10.0 mi NNW 5.8 mph - N/A   Clear
2:53 PM 78.1 °F 57.0 °F 48% 30.05 in 10.0 mi Variable 4.6 mph - N/A   Clear
3:53 PM 79.0 °F 57.0 °F 47% 30.04 in 10.0 mi Calm Calm - N/A   Clear
4:53 PM 79.0 °F 57.0 °F 47% 30.04 in 10.0 mi Variable 3.5 mph - N/A   Clear
5:53 PM 73.9 °F 60.1 °F 62% 30.04 in 10.0 mi Calm Calm - N/A   Clear
6:53 PM 66.0 °F 60.1 °F 81% 30.05 in 9.0 mi Calm Calm - N/A   Clear
7:53 PM 62.1 °F 59.0 °F 90% 30.06 in 10.0 mi Calm Calm - N/A   Clear
8:53 PM 60.1 °F 57.0 °F 90% 30.08 in 8.0 mi Calm Calm - N/A   Clear
9:53 PM 59.0 °F 57.0 °F 93% 30.09 in 8.0 mi Calm Calm - N/A   Clear
10:53 PM 57.9 °F 55.9 °F 93% 30.10 in 8.0 mi Calm Calm - N/A   Clear
11:53 PM 57.0 °F 55.0 °F 93% 30.09 in 7.0 mi Calm Calm - N/A   Clear